OAO 2

Last updated on Mon Sep 21 2026 00:02:07 GMT+0000 (Coordinated Universal Time)

1 03597U 68110A 26263.04649854 .00000127 00000+0 39215-4 0 9992 2 03597 34.9929 260.0070 0005861 312.3266 47.6927 14.47381335 47274
UTC large
Height (km)
Speed (km/s)
/
Latitude / Longitude
Inclination (degrees)
Orbital Period (minutes)
Azimuth
Elevation
Range (km)
Doppler Factor

Next 0 passes for location: London (51.5072 / 0.1276)

No passes found over London.
OAO 2